CWL67 EGYD-EGYD

Flight info

Callsign CWL67
Flight time N/A
Altitude 13000
Route EMBOR DCT HON DCT STAY1/0045 BZN DCT CONKO L18 MID M185 OCK Q3 HEMEL T420 AKUPA Y250 LESTA
Aircraft BE20/L-SBGRY/S

Departure

Time 2026-05-08 20:36
Airport RAF Cranwell (EGYD)

Arrival

Time N/A
Airport RAF Cranwell (EGYD)
Time Latitude Longitude Altitude Speed Heading
2026-05-08 20:31 53.03088 -0.50652 218 ft 0 kts 354°
2026-05-08 20:35 53.03076 -0.50599 217 ft 14 kts 149°
2026-05-08 20:35 53.02942 -0.50577 224 ft 18 kts 175°
2026-05-08 20:35 53.02895 -0.50324 221 ft 49 kts 82°
2026-05-08 20:36 53.02964 -0.49332 200 ft 120 kts 83°
2026-05-08 20:36 53.03073 -0.47778 450 ft 148 kts 82°
2026-05-08 20:36 53.03214 -0.45958 810 ft 167 kts 83°
2026-05-08 20:36 53.03357 -0.43986 1219 ft 176 kts 86°
2026-05-08 20:37 53.03449 -0.41970 1620 ft 178 kts 100°
2026-05-08 20:37 53.02856 -0.40228 2034 ft 178 kts 142°
2026-05-08 20:37 53.01694 -0.39553 2447 ft 180 kts 173°
2026-05-08 20:37 53.00489 -0.40067 2850 ft 186 kts 213°
2026-05-08 20:38 52.99759 -0.41848 3267 ft 195 kts 253°
2026-05-08 20:38 52.99781 -0.44108 3682 ft 197 kts 275°
2026-05-08 20:38 52.99843 -0.46390 4099 ft 199 kts 266°
2026-05-08 20:38 52.99769 -0.48690 4516 ft 200 kts 264°
2026-05-08 20:39 52.99665 -0.51004 4937 ft 202 kts 264°
2026-05-08 20:39 52.99571 -0.53285 5334 ft 203 kts 264°
2026-05-08 20:39 52.99481 -0.55604 5737 ft 204 kts 264°
2026-05-08 20:39 52.99389 -0.57963 6150 ft 205 kts 264°
2026-05-08 20:40 52.99294 -0.60332 6567 ft 206 kts 264°
2026-05-08 20:40 52.99199 -0.62706 6959 ft 206 kts 264°
2026-05-08 20:40 52.99104 -0.65088 7357 ft 207 kts 265°
2026-05-08 20:40 52.99007 -0.67473 7759 ft 207 kts 265°
2026-05-08 20:41 52.98910 -0.69866 8165 ft 208 kts 265°
2026-05-08 20:41 52.98814 -0.72226 8570 ft 208 kts 265°
2026-05-08 20:41 52.98716 -0.74618 8987 ft 208 kts 265°
2026-05-08 20:41 52.98617 -0.77020 9409 ft 209 kts 265°
2026-05-08 20:42 52.98518 -0.79425 9832 ft 209 kts 265°
2026-05-08 20:42 52.98418 -0.81839 10237 ft 210 kts 265°
2026-05-08 20:42 52.98316 -0.84257 10626 ft 211 kts 265°
2026-05-08 20:42 52.98215 -0.86684 11020 ft 211 kts 265°
2026-05-08 20:43 52.98112 -0.89118 11418 ft 212 kts 265°
2026-05-08 20:43 52.98008 -0.91564 11822 ft 213 kts 265°
2026-05-08 20:43 52.97905 -0.93982 12220 ft 213 kts 265°
2026-05-08 20:43 52.97800 -0.96440 12638 ft 214 kts 265°
2026-05-08 20:44 52.97694 -0.98909 13060 ft 215 kts 264°
2026-05-08 20:44 52.97621 -1.00589 13103 ft 226 kts 264°
2026-05-08 20:44 52.97489 -1.03610 13118 ft 236 kts 264°
2026-05-08 20:44 52.97373 -1.06305 13118 ft 240 kts 264°
2026-05-08 20:45 52.97252 -1.09077 13117 ft 242 kts 264°
2026-05-08 20:45 52.97129 -1.11870 13120 ft 243 kts 264°
2026-05-08 20:45 52.97007 -1.14636 13121 ft 244 kts 264°
2026-05-08 20:45 52.96881 -1.17445 13120 ft 244 kts 264°
2026-05-08 20:46 52.96755 -1.20257 13123 ft 244 kts 264°
2026-05-08 20:46 52.96629 -1.23069 13125 ft 244 kts 264°
2026-05-08 20:46 52.96374 -1.25829 13123 ft 242 kts 251°
2026-05-08 20:46 52.95636 -1.28318 13124 ft 241 kts 234°
2026-05-08 20:47 52.94476 -1.30320 13127 ft 242 kts 218°
2026-05-08 20:47 52.92996 -1.31648 13131 ft 243 kts 202°
2026-05-08 20:47 52.91431 -1.32601 13132 ft 243 kts 202°
2026-05-08 20:47 52.89842 -1.33573 13129 ft 244 kts 202°
2026-05-08 20:48 52.88251 -1.34551 13131 ft 244 kts 202°
2026-05-08 20:48 52.86658 -1.35528 13132 ft 244 kts 202°
2026-05-08 20:48 52.85066 -1.36502 13132 ft 244 kts 202°
2026-05-08 20:48 52.83471 -1.37478 13131 ft 244 kts 202°
2026-05-08 20:49 52.81875 -1.38453 13129 ft 245 kts 202°
2026-05-08 20:49 52.80281 -1.39427 13129 ft 244 kts 202°
2026-05-08 20:49 52.78707 -1.40387 13129 ft 244 kts 202°
2026-05-08 20:49 52.77113 -1.41359 13129 ft 244 kts 202°
2026-05-08 20:50 52.75517 -1.42332 13125 ft 244 kts 201°
2026-05-08 20:50 52.73920 -1.43304 13123 ft 245 kts 201°
2026-05-08 20:50 52.72321 -1.44276 13071 ft 245 kts 201°
2026-05-08 20:50 52.70720 -1.45250 13072 ft 245 kts 201°
2026-05-08 20:51 52.69119 -1.46223 13073 ft 245 kts 201°
2026-05-08 20:51 52.67517 -1.47195 13073 ft 245 kts 201°
2026-05-08 20:51 52.65938 -1.48153 13072 ft 245 kts 201°
2026-05-08 20:51 52.64312 -1.49138 13056 ft 253 kts 201°
2026-05-08 20:52 52.62647 -1.50146 13065 ft 257 kts 201°
2026-05-08 20:52 52.60965 -1.51164 13059 ft 258 kts 201°
2026-05-08 20:52 52.59275 -1.52185 13061 ft 259 kts 201°
2026-05-08 20:52 52.57582 -1.53207 13063 ft 259 kts 201°
2026-05-08 20:53 52.55885 -1.54232 13065 ft 260 kts 201°
2026-05-08 20:53 52.54191 -1.55253 13065 ft 260 kts 201°
2026-05-08 20:53 52.52494 -1.56275 13110 ft 260 kts 201°
2026-05-08 20:53 52.50819 -1.57284 13108 ft 260 kts 201°
2026-05-08 20:54 52.49120 -1.58306 13113 ft 260 kts 201°
2026-05-08 20:54 52.47420 -1.59328 13113 ft 260 kts 201°
2026-05-08 20:54 52.45721 -1.60348 13116 ft 260 kts 201°
2026-05-08 20:54 52.44021 -1.61368 13116 ft 260 kts 201°
2026-05-08 20:55 52.42321 -1.62388 13116 ft 260 kts 201°
2026-05-08 20:55 52.40620 -1.63406 13117 ft 260 kts 201°
2026-05-08 20:55 52.38918 -1.64425 13118 ft 260 kts 201°
2026-05-08 20:55 52.37240 -1.65429 13115 ft 260 kts 201°
2026-05-08 20:56 52.35503 -1.66200 13111 ft 260 kts 187°
2026-05-08 20:56 52.33694 -1.66181 13113 ft 260 kts 178°
2026-05-08 20:56 52.31881 -1.65989 13113 ft 262 kts 178°
2026-05-08 20:56 52.30061 -1.65806 13112 ft 262 kts 178°
2026-05-08 20:57 52.28239 -1.65626 13111 ft 263 kts 178°
2026-05-08 20:57 52.26415 -1.65445 13106 ft 263 kts 178°
2026-05-08 20:57 52.24589 -1.65262 13108 ft 263 kts 178°
2026-05-08 20:57 52.22766 -1.65074 13107 ft 263 kts 178°
2026-05-08 20:58 52.20951 -1.64898 12925 ft 268 kts 178°
2026-05-08 20:58 52.19071 -1.64716 12637 ft 273 kts 178°
2026-05-08 20:58 52.17167 -1.64524 12353 ft 275 kts 177°
2026-05-08 20:58 52.15257 -1.64332 12072 ft 275 kts 177°
2026-05-08 20:59 52.13342 -1.64142 11793 ft 276 kts 177°
2026-05-08 20:59 52.11431 -1.63955 11516 ft 275 kts 177°
2026-05-08 20:59 52.09520 -1.63761 11239 ft 275 kts 177°
2026-05-08 20:59 52.07614 -1.63569 10965 ft 274 kts 177°
2026-05-08 21:00 52.05713 -1.63384 10693 ft 273 kts 177°
2026-05-08 21:00 52.03842 -1.63202 10426 ft 273 kts 177°
2026-05-08 21:00 52.01952 -1.63014 10144 ft 272 kts 176°
2026-05-08 21:00 52.00067 -1.62827 9869 ft 271 kts 176°
2026-05-08 21:01 51.98187 -1.62694 9576 ft 270 kts 179°
2026-05-08 21:01 51.96312 -1.62680 9280 ft 269 kts 180°
2026-05-08 21:01 51.94442 -1.62693 8978 ft 269 kts 180°
2026-05-08 21:01 51.92575 -1.62715 8700 ft 268 kts 180°
2026-05-08 21:02 51.90716 -1.62740 8416 ft 266 kts 180°
2026-05-08 21:02 51.88892 -1.62768 8136 ft 265 kts 180°
2026-05-08 21:02 51.87047 -1.62801 7856 ft 265 kts 180°
2026-05-08 21:02 51.85211 -1.62874 7570 ft 261 kts 186°
2026-05-08 21:03 51.83525 -1.63918 7294 ft 263 kts 215°
2026-05-08 21:03 51.82303 -1.66105 7031 ft 264 kts 235°
2026-05-08 21:03 51.81349 -1.68659 6675 ft 267 kts 239°
2026-05-08 21:03 51.80444 -1.71292 6302 ft 269 kts 240°
2026-05-08 21:04 51.79548 -1.73942 5920 ft 269 kts 240°
2026-05-08 21:04 51.78658 -1.76601 5541 ft 268 kts 240°
2026-05-08 21:04 51.77793 -1.79220 5169 ft 268 kts 240°
2026-05-08 21:04 51.76920 -1.81866 4790 ft 267 kts 240°
2026-05-08 21:05 51.76018 -1.84457 4391 ft 261 kts 231°
2026-05-08 21:05 51.74639 -1.86269 4010 ft 257 kts 202°
2026-05-08 21:05 51.72924 -1.86741 3637 ft 244 kts 173°
2026-05-08 21:05 51.71410 -1.85799 3257 ft 230 kts 142°
2026-05-08 21:06 51.70503 -1.83792 2877 ft 221 kts 109°
2026-05-08 21:06 51.70425 -1.81379 2499 ft 216 kts 79°
2026-05-08 21:06 51.70906 -1.79139 2332 ft 204 kts 68°
2026-05-08 21:06 51.71445 -1.77116 2246 ft 196 kts 71°
2026-05-08 21:07 51.71883 -1.75047 2101 ft 194 kts 75°
2026-05-08 21:07 51.72260 -1.73117 2090 ft 167 kts 74°
2026-05-08 21:07 51.72616 -1.71357 1777 ft 164 kts 76°
2026-05-08 21:07 51.72917 -1.69614 1536 ft 160 kts 76°
2026-05-08 21:08 51.73228 -1.67946 1317 ft 149 kts 76°
2026-05-08 21:08 51.73515 -1.66374 1003 ft 141 kts 74°
2026-05-08 21:08 51.73765 -1.64931 801 ft 127 kts 72°
2026-05-08 21:08 51.74013 -1.63617 647 ft 119 kts 72°
2026-05-08 21:09 51.74249 -1.62362 515 ft 116 kts 72°
2026-05-08 21:09 51.74477 -1.61121 391 ft 114 kts 73°
2026-05-08 21:09 51.74698 -1.59918 496 ft 120 kts 71°
2026-05-08 21:09 51.74992 -1.58474 844 ft 152 kts 72°
2026-05-08 21:10 51.75319 -1.56691 1256 ft 177 kts 74°
2026-05-08 21:10 51.75708 -1.54724 1698 ft 190 kts 73°
2026-05-08 21:10 51.76140 -1.52650 2145 ft 198 kts 73°
2026-05-08 21:10 51.76592 -1.50531 2587 ft 201 kts 73°
2026-05-08 21:11 51.77058 -1.48339 2798 ft 215 kts 73°
2026-05-08 21:11 51.77553 -1.45991 2812 ft 225 kts 73°
2026-05-08 21:11 51.78267 -1.43740 2804 ft 231 kts 49°
2026-05-08 21:11 51.79651 -1.42382 2806 ft 239 kts 17°
2026-05-08 21:12 51.80610 -1.42221 2809 ft 242 kts 357°
2026-05-08 21:12 51.82195 -1.43100 2811 ft 245 kts 324°
2026-05-08 21:12 51.83267 -1.45185 2808 ft 244 kts 292°
2026-05-08 21:12 51.83516 -1.47837 2809 ft 238 kts 263°
2026-05-08 21:13 51.83260 -1.50463 2809 ft 236 kts 256°
2026-05-08 21:13 51.82919 -1.53061 2808 ft 235 kts 253°
2026-05-08 21:13 51.82397 -1.55562 2808 ft 235 kts 246°
2026-05-08 21:13 51.81789 -1.58017 2808 ft 236 kts 245°
2026-05-08 21:14 51.81168 -1.60465 2809 ft 236 kts 245°
2026-05-08 21:14 51.80552 -1.62886 2809 ft 236 kts 245°
2026-05-08 21:14 51.79927 -1.65342 2808 ft 236 kts 245°
2026-05-08 21:14 51.79300 -1.67802 2806 ft 239 kts 245°
2026-05-08 21:15 51.78662 -1.70289 2802 ft 240 kts 245°
2026-05-08 21:15 51.78021 -1.72777 2804 ft 240 kts 245°
2026-05-08 21:15 51.77368 -1.75310 2525 ft 249 kts 245°
2026-05-08 21:15 51.76694 -1.77909 2311 ft 249 kts 245°
2026-05-08 21:16 51.76036 -1.80455 2310 ft 244 kts 245°
2026-05-08 21:16 51.75338 -1.82910 2301 ft 237 kts 234°
2026-05-08 21:16 51.74176 -1.84519 2299 ft 217 kts 201°
2026-05-08 21:16 51.72745 -1.84758 2300 ft 204 kts 168°
2026-05-08 21:17 51.71530 -1.83717 2301 ft 200 kts 132°
2026-05-08 21:17 51.70950 -1.81726 2306 ft 198 kts 99°
2026-05-08 21:17 51.71103 -1.79526 2315 ft 199 kts 77°
2026-05-08 21:17 51.71479 -1.77361 2311 ft 202 kts 75°
2026-05-08 21:18 51.71893 -1.75203 2261 ft 200 kts 75°
2026-05-08 21:18 51.72314 -1.73086 2048 ft 195 kts 74°
2026-05-08 21:18 51.72702 -1.71088 1785 ft 172 kts 75°
2026-05-08 21:18 51.72985 -1.69428 1549 ft 143 kts 77°
2026-05-08 21:19 51.73267 -1.67948 1264 ft 136 kts 75°
2026-05-08 21:19 51.73519 -1.66459 1098 ft 139 kts 76°
2026-05-08 21:19 51.73788 -1.64957 966 ft 143 kts 71°
2026-05-08 21:19 51.74092 -1.63412 816 ft 145 kts 71°
2026-05-08 21:20 51.74358 -1.61855 590 ft 144 kts 77°
2026-05-08 21:20 51.74632 -1.60316 296 ft 139 kts 75°
2026-05-08 21:20 51.74851 -1.58986 987 ft 125 kts 75°
2026-05-08 21:20 51.75122 -1.57501 1471 ft 148 kts 74°
2026-05-08 21:21 51.75463 -1.55863 2013 ft 162 kts 73°
2026-05-08 21:21 51.75852 -1.54082 2540 ft 175 kts 73°
2026-05-08 21:21 51.76278 -1.52115 2798 ft 200 kts 73°
2026-05-08 21:21 51.76757 -1.49879 2808 ft 217 kts 70°
2026-05-08 21:22 51.77705 -1.47914 2813 ft 232 kts 37°
2026-05-08 21:22 51.79241 -1.47057 2812 ft 241 kts
2026-05-08 21:22 51.80871 -1.47655 2811 ft 244 kts 330°
2026-05-08 21:22 51.82074 -1.49546 2812 ft 243 kts 297°
2026-05-08 21:23 51.82446 -1.51237 2811 ft 241 kts 276°
2026-05-08 21:23 51.82316 -1.53885 2812 ft 236 kts 254°
2026-05-08 21:23 51.81721 -1.57263 2810 ft 237 kts 250°
2026-05-08 21:23 51.81234 -1.59805 2810 ft 237 kts 250°
2026-05-08 21:24 51.80742 -1.62350 2807 ft 238 kts 250°
2026-05-08 21:24 51.80250 -1.64899 2809 ft 238 kts 250°
2026-05-08 21:24 51.79922 -1.66590 2810 ft 238 kts 250°
2026-05-08 21:24 51.79427 -1.69145 2806 ft 240 kts 250°
2026-05-08 21:25 51.78922 -1.71722 2805 ft 241 kts 250°
2026-05-08 21:25 51.78412 -1.74310 2805 ft 242 kts 250°
2026-05-08 21:25 51.77735 -1.77735 2813 ft 242 kts 250°
2026-05-08 21:25 51.77223 -1.80322 2813 ft 242 kts 250°
2026-05-08 21:26 51.76693 -1.82892 2809 ft 238 kts 244°
2026-05-08 21:26 51.75675 -1.84929 2633 ft 227 kts 212°
2026-05-08 21:26 51.74780 -1.85571 2473 ft 202 kts 189°
2026-05-08 21:26 51.73505 -1.85404 2308 ft 170 kts 162°
2026-05-08 21:27 51.72507 -1.84898 2286 ft 134 kts 160°
2026-05-08 21:27 51.71674 -1.84469 2290 ft 124 kts 160°
2026-05-08 21:27 51.70936 -1.83641 2309 ft 144 kts 118°
2026-05-08 21:27 51.70885 -1.81980 2323 ft 161 kts 70°
2026-05-08 21:28 51.71282 -1.80286 2319 ft 164 kts 80°
2026-05-08 21:28 51.71454 -1.78464 2353 ft 164 kts 85°
2026-05-08 21:28 51.71678 -1.76658 2386 ft 167 kts 73°
2026-05-08 21:28 51.72077 -1.74825 2137 ft 176 kts 74°
2026-05-08 21:29 51.72407 -1.72954 2094 ft 171 kts 78°
2026-05-08 21:29 51.72698 -1.71165 1878 ft 156 kts 75°
2026-05-08 21:29 51.72973 -1.69557 1588 ft 146 kts 78°
2026-05-08 21:29 51.73219 -1.68009 1291 ft 140 kts 76°
2026-05-08 21:30 51.73496 -1.66476 1044 ft 144 kts 73°
2026-05-08 21:30 51.73782 -1.64904 829 ft 148 kts 72°
2026-05-08 21:30 51.74079 -1.63331 674 ft 146 kts 73°
2026-05-08 21:30 51.74355 -1.61770 530 ft 144 kts 72°
2026-05-08 21:31 51.74641 -1.60229 452 ft 142 kts 73°
2026-05-08 21:31 51.74934 -1.58665 943 ft 153 kts 72°
2026-05-08 21:31 51.75287 -1.56911 1464 ft 172 kts 74°
2026-05-08 21:31 51.75677 -1.55031 2068 ft 181 kts 73°
2026-05-08 21:32 51.76094 -1.53084 2668 ft 186 kts 73°
2026-05-08 21:32 51.76543 -1.50984 2807 ft 210 kts 73°
2026-05-08 21:32 51.77113 -1.48770 2811 ft 224 kts 57°
2026-05-08 21:32 51.78351 -1.47175 2809 ft 236 kts 23°
2026-05-08 21:33 51.79992 -1.46896 2809 ft 243 kts 351°
2026-05-08 21:33 51.81507 -1.48062 2811 ft 245 kts 317°
2026-05-08 21:33 51.82424 -1.50330 2811 ft 242 kts 285°
2026-05-08 21:33 51.82487 -1.52999 2812 ft 237 kts 257°
2026-05-08 21:34 51.82081 -1.55569 2810 ft 237 kts 251°
2026-05-08 21:34 51.81601 -1.58117 2807 ft 237 kts 250°
2026-05-08 21:34 51.81109 -1.60664 2808 ft 238 kts 250°
2026-05-08 21:34 51.80620 -1.63179 2809 ft 238 kts 250°
2026-05-08 21:35 51.80125 -1.65733 2806 ft 238 kts 250°
2026-05-08 21:35 51.79629 -1.68287 2808 ft 239 kts 250°
2026-05-08 21:35 51.79124 -1.70862 2806 ft 241 kts 250°
2026-05-08 21:35 51.78612 -1.73464 2673 ft 247 kts 250°
2026-05-08 21:36 51.78083 -1.76126 2453 ft 251 kts 250°
2026-05-08 21:36 51.77549 -1.78807 2312 ft 249 kts 250°
2026-05-08 21:36 51.77022 -1.81436 2312 ft 244 kts 250°
2026-05-08 21:36 51.76504 -1.84027 2303 ft 240 kts 249°
2026-05-08 21:37 51.75601 -1.86217 2299 ft 235 kts 217°
2026-05-08 21:37 51.74159 -1.87243 2306 ft 230 kts 185°
2026-05-08 21:37 51.72592 -1.86965 2316 ft 226 kts 163°
2026-05-08 21:37 51.71220 -1.85828 2314 ft 225 kts 135°
2026-05-08 21:38 51.70462 -1.83654 2318 ft 227 kts 103°
2026-05-08 21:38 51.70568 -1.81132 2316 ft 227 kts 73°
2026-05-08 21:38 51.71096 -1.78945 2300 ft 193 kts 71°
2026-05-08 21:38 51.71521 -1.77072 2300 ft 160 kts 75°
2026-05-08 21:39 51.71823 -1.75548 2289 ft 130 kts 76°
2026-05-08 21:39 51.72072 -1.74175 2179 ft 129 kts 77°
2026-05-08 21:39 51.72328 -1.72788 2005 ft 131 kts 77°
2026-05-08 21:39 51.72591 -1.71351 1792 ft 137 kts 76°
2026-05-08 21:40 51.72876 -1.69857 1532 ft 142 kts 75°
2026-05-08 21:40 51.73155 -1.68350 1358 ft 137 kts 76°
2026-05-08 21:40 51.73414 -1.66904 1176 ft 132 kts 74°
2026-05-08 21:41 51.73909 -1.64219 814 ft 120 kts 70°
2026-05-08 21:41 51.74147 -1.62929 637 ft 119 kts 72°
2026-05-08 21:41 51.74377 -1.61671 514 ft 121 kts 72°
2026-05-08 21:41 51.74626 -1.60306 406 ft 128 kts 72°
2026-05-08 21:42 51.74891 -1.58851 843 ft 149 kts 72°
2026-05-08 21:42 51.75241 -1.57018 1037 ft 187 kts 73°
2026-05-08 21:42 51.75632 -1.54913 1336 ft 202 kts 74°
2026-05-08 21:42 51.76070 -1.52710 1623 ft 209 kts 73°
2026-05-08 21:43 51.76500 -1.50448 1792 ft 213 kts 83°
2026-05-08 21:43 51.76347 -1.48095 1809 ft 217 kts 107°
2026-05-08 21:43 51.75871 -1.45746 1808 ft 223 kts 110°
2026-05-08 21:43 51.75349 -1.43377 1809 ft 225 kts 110°
2026-05-08 21:44 51.74879 -1.41261 1812 ft 225 kts 110°
2026-05-08 21:44 51.74351 -1.38885 1811 ft 225 kts 110°
2026-05-08 21:44 51.73907 -1.36485 1804 ft 223 kts 96°
2026-05-08 21:44 51.74229 -1.34047 1806 ft 228 kts 63°
2026-05-08 21:45 51.75343 -1.32281 1810 ft 234 kts 30°
2026-05-08 21:45 51.76940 -1.31734 1809 ft 240 kts 357°
2026-05-08 21:45 51.78559 -1.32378 1811 ft 240 kts 342°
2026-05-08 21:45 51.79949 -1.33826 1808 ft 243 kts 311°
2026-05-08 21:46 51.80703 -1.36227 1810 ft 240 kts 285°
2026-05-08 21:46 51.81100 -1.38848 1806 ft 240 kts 281°
2026-05-08 21:46 51.81441 -1.41496 1809 ft 238 kts 279°
2026-05-08 21:46 51.81320 -1.44119 1805 ft 236 kts 247°
2026-05-08 21:47 51.80369 -1.46208 1810 ft 231 kts 217°
2026-05-08 21:47 51.79084 -1.47699 1803 ft 231 kts 211°
2026-05-08 21:47 51.77752 -1.49130 1486 ft 223 kts 213°
2026-05-08 21:47 51.76652 -1.50664 1253 ft 199 kts 229°
2026-05-08 21:48 51.75857 -1.52354 1024 ft 179 kts 233°
2026-05-08 21:48 51.75193 -1.53807 938 ft 146 kts 234°
2026-05-08 21:48 51.74662 -1.55126 825 ft 138 kts 242°
2026-05-08 21:48 51.74267 -1.56507 764 ft 134 kts 248°
2026-05-08 21:49 51.73915 -1.57979 528 ft 149 kts 256°
2026-05-08 21:49 51.73480 -1.59495 686 ft 148 kts 258°
2026-05-08 21:49 51.73999 -1.60466 866 ft 141 kts
2026-05-08 21:49 51.74779 -1.59368 529 ft 165 kts 72°
2026-05-08 21:50 51.75130 -1.57509 712 ft 173 kts 71°
2026-05-08 21:50 51.75462 -1.55766 1640 ft 160 kts 75°
2026-05-08 21:50 51.75822 -1.54061 2379 ft 161 kts 73°
2026-05-08 21:50 51.76208 -1.52287 2796 ft 182 kts 73°
2026-05-08 21:51 51.76651 -1.50216 2812 ft 205 kts 73°
2026-05-08 21:51 51.77120 -1.48009 2812 ft 214 kts 73°
2026-05-08 21:51 51.77608 -1.45711 2810 ft 218 kts 73°
2026-05-08 21:51 51.78021 -1.43368 2802 ft 215 kts 87°
2026-05-08 21:52 51.77684 -1.41065 2800 ft 214 kts 121°
2026-05-08 21:52 51.77030 -1.39052 2752 ft 209 kts 88°
2026-05-08 21:52 51.77698 -1.37030 2575 ft 220 kts 31°
2026-05-08 21:52 51.79092 -1.37672 2700 ft 220 kts 317°
2026-05-08 21:53 51.79988 -1.39698 2788 ft 226 kts 291°
2026-05-08 21:53 51.80261 -1.42149 2794 ft 226 kts 272°
2026-05-08 21:53 51.80339 -1.44698 2797 ft 228 kts 270°
2026-05-08 21:53 51.80405 -1.47264 2807 ft 229 kts 270°
2026-05-08 21:54 51.80473 -1.49831 2809 ft 229 kts 270°
2026-05-08 21:54 51.80546 -1.52398 2805 ft 229 kts 270°
2026-05-08 21:54 51.80618 -1.54967 2802 ft 229 kts 270°
2026-05-08 21:54 51.80691 -1.57539 2800 ft 229 kts 270°
2026-05-08 21:55 51.80761 -1.60112 2801 ft 229 kts 270°
2026-05-08 21:55 51.80831 -1.62690 2798 ft 229 kts 270°
2026-05-08 21:55 51.80899 -1.65229 2798 ft 229 kts 270°
2026-05-08 21:56 51.81037 -1.70372 2797 ft 229 kts 270°
2026-05-08 21:56 51.81108 -1.72945 2799 ft 229 kts 270°
2026-05-08 21:56 51.81177 -1.75516 2800 ft 229 kts 270°
2026-05-08 21:56 51.81245 -1.78093 2805 ft 229 kts 270°
2026-05-08 21:57 51.81310 -1.80664 2803 ft 229 kts 270°
2026-05-08 21:57 51.81375 -1.83232 2803 ft 229 kts 270°
2026-05-08 21:57 51.81442 -1.85801 2806 ft 229 kts 270°
2026-05-08 21:57 51.81506 -1.88345 2813 ft 229 kts 270°
2026-05-08 21:58 51.81569 -1.90913 2799 ft 230 kts 270°
2026-05-08 21:58 51.81633 -1.93543 2793 ft 237 kts 270°
2026-05-08 21:58 51.81697 -1.96222 2796 ft 240 kts 270°
2026-05-08 21:58 51.81761 -1.98907 2796 ft 240 kts 270°
2026-05-08 21:59 51.81824 -2.01605 2800 ft 240 kts 270°
2026-05-08 21:59 51.81888 -2.04298 2798 ft 240 kts 270°
2026-05-08 21:59 51.81948 -2.06990 2800 ft 239 kts 270°
2026-05-08 21:59 51.81809 -2.09617 2797 ft 234 kts 248°
2026-05-08 22:00 51.80872 -2.11699 2805 ft 231 kts 216°
2026-05-08 22:00 51.79412 -2.12699 2509 ft 236 kts 188°
2026-05-08 22:00 51.77769 -2.12927 2314 ft 236 kts 181°
2026-05-08 22:00 51.76141 -2.13025 2318 ft 233 kts 180°
2026-05-08 22:01 51.74527 -2.13106 2313 ft 231 kts 180°
2026-05-08 22:01 51.72915 -2.13185 2300 ft 232 kts 180°
2026-05-08 22:01 51.71309 -2.13254 2302 ft 230 kts 180°
2026-05-08 22:01 51.69729 -2.13124 2302 ft 226 kts 163°
2026-05-08 22:02 51.68422 -2.11774 2309 ft 226 kts 131°
2026-05-08 22:02 51.67693 -2.09575 2313 ft 227 kts 103°
2026-05-08 22:02 51.67699 -2.07071 2315 ft 227 kts 86°
2026-05-08 22:02 51.67810 -2.04524 2312 ft 229 kts 89°
2026-05-08 22:03 51.67861 -2.01952 2313 ft 230 kts 90°
2026-05-08 22:03 51.67912 -1.99380 2313 ft 230 kts 89°
2026-05-08 22:03 51.67973 -1.96799 2315 ft 230 kts 90°
2026-05-08 22:03 51.68020 -1.94247 2102 ft 221 kts 89°
2026-05-08 22:04 51.68080 -1.91866 1783 ft 205 kts 90°
2026-05-08 22:04 51.68119 -1.89715 1496 ft 181 kts 89°
2026-05-08 22:04 51.68160 -1.87873 1236 ft 149 kts 89°
2026-05-08 22:04 51.68193 -1.86340 1015 ft 130 kts 88°
2026-05-08 22:05 51.68223 -1.84968 835 ft 116 kts 88°
2026-05-08 22:05 51.68252 -1.83712 679 ft 114 kts 87°
2026-05-08 22:05 51.68285 -1.82335 569 ft 121 kts 87°
2026-05-08 22:05 51.68308 -1.81110 367 ft 99 kts 88°
2026-05-08 22:06 51.68330 -1.80097 281 ft 79 kts 86°
2026-05-08 22:06 51.68352 -1.79086 358 ft 113 kts 88°
2026-05-08 22:06 51.68421 -1.77735 935 ft 131 kts 74°
2026-05-08 22:06 51.68920 -1.76252 1242 ft 167 kts 54°
2026-05-08 22:07 51.69735 -1.74889 1939 ft 168 kts 46°
2026-05-08 22:07 51.70636 -1.73595 2197 ft 187 kts 45°
2026-05-08 22:07 51.71567 -1.72054 2133 ft 191 kts 53°
2026-05-08 22:07 51.72292 -1.70420 2043 ft 168 kts 61°
2026-05-08 22:08 51.72850 -1.68799 1885 ft 163 kts 68°
2026-05-08 22:08 51.73271 -1.67081 1592 ft 165 kts 74°
2026-05-08 22:08 51.73662 -1.65404 1300 ft 153 kts 68°
2026-05-08 22:08 51.73966 -1.63849 931 ft 139 kts 73°
2026-05-08 22:09 51.74251 -1.62426 656 ft 128 kts 72°
2026-05-08 22:09 51.74494 -1.61079 453 ft 128 kts 72°
2026-05-08 22:09 51.74737 -1.59667 512 ft 135 kts 75°
2026-05-08 22:09 51.74974 -1.58143 1037 ft 144 kts 74°
2026-05-08 22:10 51.75292 -1.56572 1639 ft 156 kts 73°
2026-05-08 22:10 51.75672 -1.54827 2244 ft 172 kts 73°
2026-05-08 22:10 51.76252 -1.53157 2958 ft 177 kts 44°
2026-05-08 22:10 51.77443 -1.52409 3531 ft 195 kts
2026-05-08 22:11 51.78750 -1.53030 4081 ft 207 kts 324°
2026-05-08 22:11 51.79595 -1.54887 4646 ft 210 kts 285°
2026-05-08 22:11 51.79588 -1.57201 5208 ft 207 kts 253°
2026-05-08 22:11 51.79155 -1.59422 5759 ft 209 kts 249°
2026-05-08 22:12 51.78671 -1.61652 6313 ft 212 kts 248°
2026-05-08 22:12 51.78174 -1.63911 6839 ft 214 kts 248°
2026-05-08 22:12 51.77669 -1.66187 7362 ft 216 kts 248°
2026-05-08 22:12 51.77159 -1.68481 7889 ft 218 kts 248°
2026-05-08 22:13 51.76644 -1.70792 8427 ft 219 kts 248°
2026-05-08 22:13 51.76120 -1.73066 8945 ft 218 kts 243°
2026-05-08 22:13 51.75214 -1.74982 9505 ft 215 kts 224°
2026-05-08 22:13 51.74208 -1.76789 10055 ft 219 kts 229°
2026-05-08 22:14 51.73240 -1.78831 10123 ft 239 kts 233°
2026-05-08 22:14 51.72263 -1.81072 10130 ft 249 kts 233°
2026-05-08 22:14 51.71246 -1.83368 10129 ft 254 kts 233°
2026-05-08 22:14 51.70203 -1.85683 10129 ft 256 kts 232°
2026-05-08 22:15 51.69148 -1.88010 10145 ft 256 kts 232°
2026-05-08 22:15 51.68118 -1.90291 10416 ft 249 kts 233°
2026-05-08 22:15 51.67121 -1.92500 10679 ft 246 kts 233°
2026-05-08 22:15 51.66121 -1.94713 10969 ft 243 kts 232°
2026-05-08 22:16 51.65132 -1.96899 11314 ft 240 kts 232°
2026-05-08 22:16 51.64151 -1.99063 11663 ft 239 kts 232°
2026-05-08 22:16 51.62932 -2.00788 12017 ft 235 kts 204°
2026-05-08 22:16 51.61306 -2.01243 12123 ft 247 kts 175°
2026-05-08 22:17 51.59684 -2.00247 12129 ft 257 kts 145°
2026-05-08 22:17 51.58537 -1.98017 12127 ft 264 kts 118°
2026-05-08 22:17 51.57828 -1.95285 12128 ft 266 kts 114°
2026-05-08 22:17 51.57061 -1.92621 12121 ft 266 kts 121°
2026-05-08 22:18 51.56063 -1.90113 12126 ft 267 kts 127°
2026-05-08 22:18 51.54996 -1.87670 12126 ft 268 kts 126°
2026-05-08 22:18 51.53970 -1.85168 12126 ft 269 kts 124°
2026-05-08 22:18 51.52965 -1.82633 12128 ft 269 kts 124°
2026-05-08 22:19 51.51950 -1.80102 12130 ft 269 kts 125°
2026-05-08 22:19 51.50926 -1.77583 12128 ft 270 kts 125°
2026-05-08 22:19 51.49901 -1.75062 12128 ft 270 kts 125°
2026-05-08 22:19 51.48879 -1.72542 12127 ft 270 kts 125°
2026-05-08 22:20 51.47870 -1.70054 12128 ft 270 kts 125°
2026-05-08 22:20 51.46861 -1.67518 12125 ft 269 kts 121°
2026-05-08 22:20 51.46063 -1.64821 12124 ft 269 kts 116°
2026-05-08 22:20 51.45273 -1.62095 12125 ft 270 kts 117°
2026-05-08 22:21 51.44473 -1.59373 12126 ft 270 kts 117°
2026-05-08 22:21 51.43670 -1.56644 12127 ft 271 kts 117°
2026-05-08 22:21 51.42869 -1.53912 12123 ft 271 kts 117°
2026-05-08 22:21 51.42069 -1.51188 12117 ft 271 kts 117°
2026-05-08 22:22 51.41275 -1.48488 12119 ft 271 kts 117°
2026-05-08 22:22 51.40471 -1.45761 12120 ft 271 kts 117°
2026-05-08 22:22 51.39667 -1.43032 12115 ft 271 kts 116°
2026-05-08 22:22 51.38862 -1.40306 12116 ft 271 kts 117°
2026-05-08 22:23 51.38058 -1.37583 12116 ft 271 kts 117°
2026-05-08 22:23 51.37250 -1.34856 12117 ft 271 kts 117°
2026-05-08 22:23 51.36443 -1.32130 12118 ft 271 kts 117°
2026-05-08 22:23 51.35637 -1.29407 12116 ft 271 kts 117°
2026-05-08 22:24 51.34839 -1.26723 12113 ft 271 kts 117°
2026-05-08 22:24 51.34029 -1.24000 12111 ft 270 kts 117°
2026-05-08 22:24 51.33089 -1.21444 12115 ft 267 kts 125°
2026-05-08 22:24 51.32072 -1.18973 12267 ft 264 kts 125°
2026-05-08 22:25 51.31065 -1.16556 12575 ft 256 kts 129°
2026-05-08 22:25 51.29991 -1.14297 12877 ft 256 kts 129°
2026-05-08 22:25 51.28884 -1.11939 12614 ft 273 kts 128°
2026-05-08 22:25 51.27730 -1.09475 12338 ft 280 kts 128°
2026-05-08 22:26 51.26552 -1.06975 12065 ft 283 kts 129°
2026-05-08 22:26 51.25368 -1.04468 11790 ft 283 kts 128°
2026-05-08 22:26 51.24185 -1.01963 11515 ft 282 kts 128°
2026-05-08 22:26 51.23401 -1.00306 11334 ft 282 kts 129°
2026-05-08 22:27 51.22756 -0.98941 11185 ft 281 kts 128°
2026-05-08 22:27 51.21580 -0.96455 10912 ft 280 kts 128°
2026-05-08 22:27 51.20409 -0.93983 10636 ft 279 kts 128°
2026-05-08 22:27 51.19240 -0.91517 10368 ft 278 kts 128°
2026-05-08 22:28 51.18076 -0.89067 10140 ft 276 kts 129°
2026-05-08 22:28 51.16936 -0.86665 10134 ft 268 kts 129°
2026-05-08 22:28 51.15819 -0.84315 10131 ft 265 kts 129°
2026-05-08 22:28 51.14709 -0.81985 10127 ft 263 kts 129°
2026-05-08 22:29 51.13620 -0.79699 10124 ft 263 kts 129°
2026-05-08 22:29 51.12516 -0.77383 10123 ft 262 kts 129°
2026-05-08 22:29 51.11413 -0.75072 10124 ft 262 kts 129°
2026-05-08 22:29 51.10311 -0.72765 10123 ft 262 kts 129°
2026-05-08 22:30 51.09324 -0.70340 10120 ft 262 kts 116°
2026-05-08 22:30 51.08810 -0.67563 10121 ft 264 kts 99°
2026-05-08 22:30 51.08820 -0.64632 10109 ft 267 kts 83°
2026-05-08 22:30 51.09383 -0.61766 9821 ft 276 kts 64°
2026-05-08 22:31 51.10483 -0.59262 9537 ft 279 kts 46°
2026-05-08 22:31 51.12003 -0.57412 9258 ft 279 kts 28°
2026-05-08 22:31 51.13726 -0.56070 9136 ft 273 kts 25°
2026-05-08 22:31 51.15427 -0.54767 9135 ft 269 kts 26°
2026-05-08 22:32 51.17105 -0.53469 9135 ft 267 kts 26°
2026-05-08 22:32 51.18770 -0.52176 9134 ft 266 kts 26°
2026-05-08 22:32 51.20434 -0.50885 9135 ft 266 kts 26°
2026-05-08 22:32 51.22095 -0.49598 9131 ft 266 kts 26°
2026-05-08 22:33 51.23768 -0.48375 9130 ft 262 kts 19°
2026-05-08 22:33 51.25503 -0.47444 9131 ft 263 kts 18°
2026-05-08 22:33 51.27216 -0.46523 9132 ft 264 kts 18°
2026-05-08 22:33 51.28960 -0.45569 9132 ft 265 kts 19°
2026-05-08 22:34 51.30720 -0.44763 9127 ft 263 kts
2026-05-08 22:34 51.32539 -0.44611 9129 ft 262 kts
2026-05-08 22:34 51.34363 -0.44515 9137 ft 263 kts
2026-05-08 22:34 51.36194 -0.44410 9138 ft 263 kts
2026-05-08 22:35 51.38025 -0.44308 9139 ft 263 kts
2026-05-08 22:35 51.39855 -0.44207 9139 ft 263 kts
2026-05-08 22:35 51.41686 -0.44107 9139 ft 263 kts
2026-05-08 22:35 51.43494 -0.44006 9140 ft 263 kts
2026-05-08 22:36 51.45323 -0.43905 9139 ft 263 kts
2026-05-08 22:36 51.47155 -0.43804 9140 ft 263 kts
2026-05-08 22:36 51.48987 -0.43702 9140 ft 263 kts
2026-05-08 22:36 51.50816 -0.43601 9140 ft 263 kts
2026-05-08 22:37 51.52648 -0.43499 9140 ft 263 kts
2026-05-08 22:37 51.54478 -0.43397 9140 ft 264 kts
2026-05-08 22:37 51.56315 -0.43295 9140 ft 264 kts
2026-05-08 22:37 51.58148 -0.43193 9140 ft 263 kts
2026-05-08 22:38 51.59956 -0.43093 9141 ft 263 kts
2026-05-08 22:38 51.61788 -0.42991 9140 ft 264 kts
2026-05-08 22:38 51.63624 -0.42888 9140 ft 264 kts
2026-05-08 22:38 51.65453 -0.42786 9141 ft 263 kts
2026-05-08 22:39 51.67283 -0.42684 9166 ft 263 kts
2026-05-08 22:39 51.69118 -0.42582 9167 ft 264 kts
2026-05-08 22:39 51.70948 -0.42479 9168 ft 264 kts
2026-05-08 22:39 51.72783 -0.42377 9165 ft 264 kts
2026-05-08 22:40 51.74616 -0.42274 9164 ft 264 kts
2026-05-08 22:40 51.76425 -0.42173 9164 ft 264 kts
2026-05-08 22:40 51.78259 -0.42070 9138 ft 263 kts
2026-05-08 22:40 51.80072 -0.42198 9138 ft 261 kts 348°
2026-05-08 22:41 51.81783 -0.43148 9140 ft 261 kts 332°
2026-05-08 22:41 51.83337 -0.44638 9140 ft 260 kts 328°
2026-05-08 22:41 51.84887 -0.46144 9139 ft 260 kts 328°
2026-05-08 22:41 51.86442 -0.47651 9141 ft 261 kts 329°
2026-05-08 22:42 51.87997 -0.49161 9139 ft 261 kts 328°
2026-05-08 22:42 51.89551 -0.50674 9139 ft 261 kts 328°
2026-05-08 22:42 51.91104 -0.52186 9140 ft 261 kts 328°
2026-05-08 22:42 51.92639 -0.53682 9141 ft 261 kts 328°
2026-05-08 22:43 51.94195 -0.55200 9141 ft 261 kts 328°
2026-05-08 22:43 51.95751 -0.56718 9141 ft 261 kts 328°
2026-05-08 22:43 51.97305 -0.58236 9142 ft 261 kts 328°
2026-05-08 22:43 51.98859 -0.59756 9140 ft 261 kts 328°
2026-05-08 22:44 52.00413 -0.61277 9140 ft 261 kts 328°
2026-05-08 22:44 52.01965 -0.62797 9140 ft 261 kts 328°
2026-05-08 22:44 52.03521 -0.64322 9140 ft 261 kts 328°
2026-05-08 22:44 52.05076 -0.65847 9141 ft 261 kts 328°
2026-05-08 22:45 52.06633 -0.67376 9141 ft 261 kts 328°
2026-05-08 22:45 52.08167 -0.68882 9141 ft 261 kts 328°
2026-05-08 22:45 52.09720 -0.70410 9140 ft 261 kts 328°
2026-05-08 22:45 52.11274 -0.71939 9141 ft 261 kts 328°
2026-05-08 22:46 52.12828 -0.73470 9140 ft 261 kts 328°
2026-05-08 22:46 52.14383 -0.75002 9140 ft 261 kts 328°
2026-05-08 22:46 52.15934 -0.76533 9139 ft 260 kts 328°
2026-05-08 22:46 52.17473 -0.78041 9136 ft 250 kts 330°
2026-05-08 22:47 52.18842 -0.79379 9105 ft 217 kts 328°
2026-05-08 22:47 52.20041 -0.80588 9103 ft 189 kts 327°
2026-05-08 22:47 52.21090 -0.81625 9102 ft 165 kts 328°
2026-05-08 22:47 52.22010 -0.82526 9057 ft 145 kts 329°
2026-05-08 22:48 52.22912 -0.82938 8811 ft 127 kts
2026-05-08 22:48 52.23800 -0.82888 8368 ft 131 kts
2026-05-08 22:48 52.24698 -0.82915 8003 ft 127 kts
2026-05-08 22:48 52.25545 -0.82771 7705 ft 119 kts 15°
2026-05-08 22:49 52.26220 -0.82079 7395 ft 115 kts 59°
2026-05-08 22:49 52.25789 -0.80198 6895 ft 105 kts 171°
2026-05-08 22:49 52.25160 -0.80750 6515 ft 119 kts 248°
2026-05-08 22:50 52.25380 -0.81988 6167 ft 121 kts 329°
2026-05-08 22:50 52.26129 -0.81791 5762 ft 117 kts 56°
2026-05-08 22:50 52.26076 -0.80738 5595 ft 96 kts 141°
2026-05-08 22:50 52.25428 -0.80549 5306 ft 101 kts 196°
2026-05-08 22:51 52.24917 -0.81333 5012 ft 109 kts 248°
2026-05-08 22:51 52.24967 -0.82554 4731 ft 112 kts 299°
2026-05-08 22:51 52.25522 -0.83373 4479 ft 110 kts 340°
2026-05-08 22:51 52.26267 -0.83433 4162 ft 111 kts 21°
2026-05-08 22:52 52.26987 -0.82836 3683 ft 123 kts 37°
2026-05-08 22:52 52.27685 -0.81925 3164 ft 134 kts 44°
2026-05-08 22:52 52.28411 -0.80932 2595 ft 135 kts 49°
2026-05-08 22:52 52.28897 -0.79829 2491 ft 108 kts 57°
2026-05-08 22:53 52.29295 -0.78820 2258 ft 103 kts 62°
2026-05-08 22:53 52.29730 -0.77918 2034 ft 101 kts 44°
2026-05-08 22:53 52.30331 -0.77335 1809 ft 100 kts 28°
2026-05-08 22:53 52.30995 -0.77390 1577 ft 103 kts 321°
2026-05-08 22:54 52.31303 -0.78441 1194 ft 104 kts 259°
2026-05-08 22:54 52.30788 -0.79111 581 ft 111 kts 198°
2026-05-08 22:54 52.30127 -0.79598 394 ft 60 kts 203°
2026-05-08 22:54 52.30049 -0.79657 393 ft 0 kts 209°